Time,TemperatureF,DewpointF,PressureIn,WindDirection,WindDirectionDegrees,WindSpeedMPH,WindSpeedGustMPH,Humidity,HourlyPrecipIn,Conditions,Clouds,dailyrainin,SoftwareType,DateUTC
2013-06-14 00:02:00,62.2,50.4,29.27,NW,314,0.0,0.0,65,0.00,,,0.00,WUHU216WMR968SP,2013-06-14 07:02:00,
2013-06-14 00:07:00,62.2,50.4,29.27,NW,314,0.0,0.0,65,0.00,,,0.00,WUHU216WMR968SP,2013-06-14 07:07:00,
2013-06-14 00:12:00,62.1,50.3,29.27,NE,54,0.0,0.0,65,0.00,,,0.00,WUHU216WMR968SP,2013-06-14 07:12:00,
2013-06-14 00:17:00,62.2,50.4,29.27,NE,54,0.0,0.0,65,0.00,,,0.00,WUHU216WMR968SP,2013-06-14 07:17:00,
2013-06-14 00:22:00,62.2,50.4,29.27,NE,54,0.0,0.0,65,0.00,,,0.00,WUHU216WMR968SP,2013-06-14 07:22:00,
2013-06-14 00:27:00,62.2,50.4,29.27,ENE,78,0.0,0.0,65,0.00,,,0.00,WUHU216WMR968SP,2013-06-14 07:27:00,
2013-06-14 00:32:00,62.1,50.3,29.27,ENE,76,0.0,0.0,65,0.00,,,0.00,WUHU216WMR968SP,2013-06-14 07:32:00,
2013-06-14 00:37:00,62.1,50.3,29.27,ENE,75,0.0,0.0,65,0.00,,,0.00,WUHU216WMR968SP,2013-06-14 07:37:00,
2013-06-14 00:42:00,61.9,50.2,29.27,East,97,0.0,0.0,65,0.00,,,0.00,WUHU216WMR968SP,2013-06-14 07:42:00,
2013-06-14 00:47:00,61.9,50.2,29.27,East,88,0.0,0.0,65,0.00,,,0.00,WUHU216WMR968SP,2013-06-14 07:47:00,
2013-06-14 00:52:00,61.7,50.4,29.27,East,93,0.0,0.0,66,0.00,,,0.00,WUHU216WMR968SP,2013-06-14 07:52:00,
2013-06-14 00:57:00,61.5,50.2,29.27,East,94,0.0,0.0,66,0.00,,,0.00,WUHU216WMR968SP,2013-06-14 07:57:00,
2013-06-14 01:02:00,61.7,50.4,29.27,East,94,0.0,0.0,66,0.00,,,0.00,WUHU216WMR968SP,2013-06-14 08:02:00,
2013-06-14 01:07:00,61.7,50.4,29.27,East,93,0.0,0.0,66,0.00,,,0.00,WUHU216WMR968SP,2013-06-14 08:07:00,
2013-06-14 01:12:00,61.7,50.4,29.27,East,94,0.0,0.0,66,0.00,,,0.00,WUHU216WMR968SP,2013-06-14 08:12:00,
2013-06-14 01:17:00,61.5,50.2,29.27,East,94,0.0,0.0,66,0.00,,,0.00,WUHU216WMR968SP,2013-06-14 08:17:00,
2013-06-14 01:22:00,61.5,50.2,29.27,East,93,0.0,0.0,66,0.00,,,0.00,WUHU216WMR968SP,2013-06-14 08:22:00,
2013-06-14 01:27:00,61.5,50.2,29.27,East,94,0.0,0.0,66,0.00,,,0.00,WUHU216WMR968SP,2013-06-14 08:27:00,
2013-06-14 01:32:00,61.3,50.0,29.27,East,93,0.0,0.0,66,0.00,,,0.00,WUHU216WMR968SP,2013-06-14 08:32:00,
2013-06-14 01:37:00,61.3,50.4,29.27,East,96,0.0,3.6,67,0.00,,,0.00,WUHU216WMR968SP,2013-06-14 08:37:00,
2013-06-14 01:42:00,61.5,50.6,29.27,SE,130,4.0,4.0,67,0.00,,,0.00,WUHU216WMR968SP,2013-06-14 08:42:00,
2013-06-14 01:47:00,61.7,50.8,29.27,ESE,113,3.1,4.0,67,0.00,,,0.00,WUHU216WMR968SP,2013-06-14 08:47:00,
2013-06-14 01:52:00,61.7,51.2,29.24,East,89,3.1,4.9,68,0.00,,,0.00,WUHU216WMR968SP,2013-06-14 08:52:00,
2013-06-14 01:57:00,61.7,51.2,29.24,ESE,118,0.0,4.9,68,0.00,,,0.00,WUHU216WMR968SP,2013-06-14 08:57:00,
2013-06-14 02:02:00,61.9,51.4,29.24,East,82,0.0,3.6,68,0.00,,,0.00,WUHU216WMR968SP,2013-06-14 09:02:00,
2013-06-14 02:07:00,61.7,51.2,29.24,East,85,0.0,4.0,68,0.00,,,0.00,WUHU216WMR968SP,2013-06-14 09:07:00,
2013-06-14 02:12:00,61.7,51.2,29.24,ESE,103,0.0,4.0,68,0.00,,,0.00,WUHU216WMR968SP,2013-06-14 09:12:00,
2013-06-14 02:17:00,61.7,51.2,29.24,ESE,113,3.1,4.9,68,0.00,,,0.00,WUHU216WMR968SP,2013-06-14 09:17:00,
2013-06-14 02:22:00,61.9,51.4,29.24,ESE,111,0.0,4.9,68,0.00,,,0.00,WUHU216WMR968SP,2013-06-14 09:22:00,
2013-06-14 02:27:00,61.9,51.4,29.24,ESE,111,0.0,3.1,68,0.00,,,0.00,WUHU216WMR968SP,2013-06-14 09:27:00,
2013-06-14 02:32:00,61.9,51.4,29.24,East,83,0.0,4.0,68,0.00,,,0.00,WUHU216WMR968SP,2013-06-14 09:32:00,
2013-06-14 02:37:00,61.9,51.4,29.24,East,83,0.0,4.5,68,0.00,,,0.00,WUHU216WMR968SP,2013-06-14 09:37:00,
2013-06-14 02:42:00,61.9,51.8,29.24,East,86,0.0,4.5,69,0.00,,,0.00,WUHU216WMR968SP,2013-06-14 09:42:00,
2013-06-14 02:47:00,61.7,51.6,29.24,East,86,0.0,3.1,69,0.00,,,0.00,WUHU216WMR968SP,2013-06-14 09:47:00,
2013-06-14 02:52:00,61.9,51.8,29.24,East,86,0.0,0.0,69,0.00,,,0.00,WUHU216WMR968SP,2013-06-14 09:52:00,
2013-06-14 02:57:00,61.9,51.8,29.24,East,86,0.0,0.0,69,0.00,,,0.00,WUHU216WMR968SP,2013-06-14 09:57:00,
2013-06-14 03:02:00,61.9,51.8,29.24,SE,127,2.2,3.6,69,0.00,,,0.00,WUHU216WMR968SP,2013-06-14 10:02:00,
2013-06-14 03:07:00,61.9,51.8,29.24,East,92,2.7,3.6,69,0.00,,,0.00,WUHU216WMR968SP,2013-06-14 10:07:00,
2013-06-14 03:12:00,61.9,51.8,29.24,ESE,115,0.0,4.0,69,0.00,,,0.00,WUHU216WMR968SP,2013-06-14 10:12:00,
2013-06-14 03:17:00,62.1,52.0,29.24,South,191,0.0,4.0,69,0.00,,,0.00,WUHU216WMR968SP,2013-06-14 10:17:00,
2013-06-14 03:22:00,62.2,51.7,29.24,SSW,198,0.0,0.0,68,0.00,,,0.00,WUHU216WMR968SP,2013-06-14 10:22:00,
2013-06-14 03:27:00,62.4,51.9,29.24,SSW,197,0.0,0.0,68,0.00,,,0.00,WUHU216WMR968SP,2013-06-14 10:27:00,
2013-06-14 03:32:00,62.4,51.9,29.24,South,184,0.0,0.0,68,0.00,,,0.00,WUHU216WMR968SP,2013-06-14 10:32:00,
2013-06-14 03:37:00,62.6,51.6,29.24,East,90,0.0,0.0,67,0.00,,,0.00,WUHU216WMR968SP,2013-06-14 10:37:00,
2013-06-14 03:42:00,62.4,51.9,29.24,South,185,0.0,0.0,68,0.00,,,0.00,WUHU216WMR968SP,2013-06-14 10:42:00,
2013-06-14 03:47:00,62.4,51.9,29.24,South,185,0.0,0.0,68,0.00,,,0.00,WUHU216WMR968SP,2013-06-14 10:47:00,
2013-06-14 03:52:00,62.2,51.7,29.24,South,186,0.0,0.0,68,0.00,,,0.00,WUHU216WMR968SP,2013-06-14 10:52:00,
2013-06-14 03:57:00,62.1,51.6,29.24,SW,227,0.0,2.7,68,0.00,,,0.00,WUHU216WMR968SP,2013-06-14 10:57:00,
2013-06-14 04:02:00,62.1,51.6,29.24,SSE,167,2.2,4.0,68,0.00,,,0.00,WUHU216WMR968SP,2013-06-14 11:02:00,
2013-06-14 04:07:00,62.1,51.6,29.24,South,190,0.0,4.0,68,0.00,,,0.00,WUHU216WMR968SP,2013-06-14 11:07:00,
2013-06-14 04:12:00,62.2,51.7,29.24,ESE,117,0.0,2.7,68,0.00,,,0.00,WUHU216WMR968SP,2013-06-14 11:12:00,
2013-06-14 04:17:00,62.2,51.7,29.24,ESE,117,0.0,2.7,68,0.00,,,0.00,WUHU216WMR968SP,2013-06-14 11:17:00,
2013-06-14 04:22:00,62.4,51.9,29.24,ESE,117,0.0,0.0,68,0.00,,,0.00,WUHU216WMR968SP,2013-06-14 11:22:00,
2013-06-14 04:27:00,62.4,51.9,29.24,SSW,205,0.0,2.7,68,0.00,,,0.00,WUHU216WMR968SP,2013-06-14 11:27:00,
2013-06-14 04:32:00,62.4,51.9,29.24,SSW,205,0.0,2.7,68,0.00,,,0.00,WUHU216WMR968SP,2013-06-14 11:32:00,
2013-06-14 04:37:00,62.4,51.9,29.24,SSW,205,0.0,0.0,68,0.00,,,0.00,WUHU216WMR968SP,2013-06-14 11:37:00,
2013-06-14 04:42:00,62.4,51.5,29.24,SSW,205,0.0,0.0,67,0.00,,,0.00,WUHU216WMR968SP,2013-06-14 11:42:00,
2013-06-14 04:47:00,62.4,51.5,29.24,SSW,205,0.0,0.0,67,0.00,,,0.00,WUHU216WMR968SP,2013-06-14 11:47:00,
2013-06-14 04:52:00,62.4,51.5,29.24,SSW,205,0.0,0.0,67,0.00,,,0.00,WUHU216WMR968SP,2013-06-14 11:52:00,
2013-06-14 04:57:00,62.4,51.5,29.24,SSW,205,0.0,0.0,67,0.00,,,0.00,WUHU216WMR968SP,2013-06-14 11:57:00,
2013-06-14 05:02:00,62.6,51.6,29.24,SSW,205,0.0,0.0,67,0.00,,,0.00,WUHU216WMR968SP,2013-06-14 12:02:00,
2013-06-14 05:07:00,62.6,51.6,29.24,SSW,205,0.0,0.0,67,0.00,,,0.00,WUHU216WMR968SP,2013-06-14 12:07:00,
2013-06-14 05:12:00,62.6,51.6,29.24,SSW,205,0.0,0.0,67,0.00,,,0.00,WUHU216WMR968SP,2013-06-14 12:12:00,
2013-06-14 05:17:00,62.6,51.6,29.24,SSW,205,0.0,0.0,67,0.00,,,0.00,WUHU216WMR968SP,2013-06-14 12:17:00,
2013-06-14 05:22:00,62.8,51.8,29.24,SSW,213,0.0,2.7,67,0.00,,,0.00,WUHU216WMR968SP,2013-06-14 12:22:00,
2013-06-14 05:27:00,62.8,51.8,29.24,SSW,202,0.0,4.0,67,0.00,,,0.00,WUHU216WMR968SP,2013-06-14 12:27:00,
2013-06-14 05:32:00,62.8,51.8,29.24,SW,224,0.0,4.0,67,0.00,,,0.00,WUHU216WMR968SP,2013-06-14 12:32:00,
2013-06-14 05:37:00,62.8,51.8,29.24,SW,231,0.0,3.6,67,0.00,,,0.00,WUHU216WMR968SP,2013-06-14 12:37:00,
2013-06-14 05:42:00,62.8,51.8,29.24,SSW,210,0.0,3.6,67,0.00,,,0.00,WUHU216WMR968SP,2013-06-14 12:42:00,
2013-06-14 05:47:00,62.8,51.8,29.24,SE,140,0.0,3.6,67,0.00,,,0.00,WUHU216WMR968SP,2013-06-14 12:47:00,
2013-06-14 05:52:00,62.8,51.8,29.24,SSE,151,0.0,3.1,67,0.00,,,0.00,WUHU216WMR968SP,2013-06-14 12:52:00,
2013-06-14 05:57:00,63.0,52.0,29.24,SSE,151,0.0,2.7,67,0.00,,,0.00,WUHU216WMR968SP,2013-06-14 12:57:00,
2013-06-14 06:02:00,63.0,52.0,29.24,South,185,0.0,3.1,67,0.00,,,0.00,WUHU216WMR968SP,2013-06-14 13:02:00,
2013-06-14 06:07:00,63.0,52.0,29.24,South,190,3.1,3.6,67,0.00,,,0.00,WUHU216WMR968SP,2013-06-14 13:07:00,
2013-06-14 06:12:00,63.0,52.0,29.24,SW,218,2.2,4.0,67,0.00,,,0.00,WUHU216WMR968SP,2013-06-14 13:12:00,
2013-06-14 06:17:00,63.0,52.0,29.24,SW,224,2.7,4.0,67,0.00,,,0.00,WUHU216WMR968SP,2013-06-14 13:17:00,
2013-06-14 06:22:00,62.8,51.8,29.24,SSW,208,0.0,3.6,67,0.00,,,0.00,WUHU216WMR968SP,2013-06-14 13:22:00,
2013-06-14 06:27:00,62.8,51.8,29.24,South,190,0.0,3.6,67,0.00,,,0.00,WUHU216WMR968SP,2013-06-14 13:27:00,
2013-06-14 06:32:00,62.8,51.8,29.24,South,190,0.0,3.6,67,0.00,,,0.00,WUHU216WMR968SP,2013-06-14 13:32:00,
2013-06-14 06:37:00,63.0,52.0,29.24,South,189,0.0,3.1,67,0.00,,,0.00,WUHU216WMR968SP,2013-06-14 13:37:00,
2013-06-14 06:42:00,63.0,52.0,29.24,SSE,151,0.0,3.1,67,0.00,,,0.00,WUHU216WMR968SP,2013-06-14 13:42:00,
2013-06-14 06:47:00,63.0,51.6,29.24,South,175,0.0,2.7,66,0.00,,,0.00,WUHU216WMR968SP,2013-06-14 13:47:00,
2013-06-14 06:52:00,63.0,51.6,29.24,SE,142,0.0,0.0,66,0.00,,,0.00,WUHU216WMR968SP,2013-06-14 13:52:00,
2013-06-14 06:57:00,63.0,51.6,29.24,SSE,149,0.0,0.0,66,0.00,,,0.00,WUHU216WMR968SP,2013-06-14 13:57:00,
2013-06-14 07:02:00,63.0,51.6,29.24,SW,223,0.0,3.1,66,0.00,,,0.00,WUHU216WMR968SP,2013-06-14 14:02:00,
2013-06-14 07:07:00,63.0,51.6,29.24,WSW,245,2.2,3.1,66,0.00,,,0.00,WUHU216WMR968SP,2013-06-14 14:07:00,
2013-06-14 07:12:00,63.0,51.6,29.24,SSW,200,0.0,2.7,66,0.00,,,0.00,WUHU216WMR968SP,2013-06-14 14:12:00,
2013-06-14 07:17:00,63.0,51.6,29.24,SSW,202,0.0,2.7,66,0.00,,,0.00,WUHU216WMR968SP,2013-06-14 14:17:00,
2013-06-14 07:22:00,63.1,51.7,29.24,East,95,0.0,2.7,66,0.00,,,0.00,WUHU216WMR968SP,2013-06-14 14:22:00,
2013-06-14 07:27:00,63.1,51.7,29.24,SSW,199,0.0,3.6,66,0.00,,,0.00,WUHU216WMR968SP,2013-06-14 14:27:00,
2013-06-14 07:32:00,63.3,51.9,29.24,South,187,0.0,3.6,66,0.00,,,0.00,WUHU216WMR968SP,2013-06-14 14:32:00,
2013-06-14 07:37:00,63.5,52.1,29.24,South,178,0.0,3.6,66,0.00,,,0.00,WUHU216WMR968SP,2013-06-14 14:37:00,
2013-06-14 07:42:00,63.5,51.7,29.24,ESE,104,0.0,3.6,65,0.00,,,0.00,WUHU216WMR968SP,2013-06-14 14:42:00,
2013-06-14 07:47:00,63.7,51.9,29.24,South,189,0.0,0.0,65,0.00,,,0.00,WUHU216WMR968SP,2013-06-14 14:47:00,
2013-06-14 07:52:00,63.7,51.9,29.24,SW,233,0.0,0.0,65,0.00,,,0.00,WUHU216WMR968SP,2013-06-14 14:52:00,
2013-06-14 07:57:00,63.7,51.9,29.24,SSW,199,0.0,0.0,65,0.00,,,0.00,WUHU216WMR968SP,2013-06-14 14:57:00,
2013-06-14 08:02:00,63.7,51.9,29.24,South,180,0.0,0.0,65,0.00,,,0.00,WUHU216WMR968SP,2013-06-14 15:02:00,
2013-06-14 08:07:00,63.9,52.1,29.24,ESE,106,0.0,0.0,65,0.00,,,0.00,WUHU216WMR968SP,2013-06-14 15:07:00,
2013-06-14 08:12:00,63.9,51.6,29.24,SW,216,0.0,0.0,64,0.00,,,0.00,WUHU216WMR968SP,2013-06-14 15:12:00,
2013-06-14 08:17:00,64.0,51.7,29.24,SSW,210,0.0,0.0,64,0.00,,,0.00,WUHU216WMR968SP,2013-06-14 15:17:00,
2013-06-14 08:22:00,64.0,51.7,29.24,SSE,147,0.0,0.0,64,0.00,,,0.00,WUHU216WMR968SP,2013-06-14 15:22:00,
2013-06-14 08:27:00,64.0,51.7,29.24,SE,135,0.0,0.0,64,0.00,,,0.00,WUHU216WMR968SP,2013-06-14 15:27:00,
2013-06-14 08:32:00,64.0,51.7,29.24,WSW,238,0.0,0.0,64,0.00,,,0.00,WUHU216WMR968SP,2013-06-14 15:32:00,
2013-06-14 08:37:00,63.9,51.6,29.27,SW,217,0.0,0.0,64,0.00,,,0.00,WUHU216WMR968SP,2013-06-14 15:37:00,
2013-06-14 08:42:00,63.9,51.6,29.27,SSW,194,0.0,0.0,64,0.00,,,0.00,WUHU216WMR968SP,2013-06-14 15:42:00,
2013-06-14 08:47:00,64.0,51.7,29.27,SW,223,0.0,0.0,64,0.00,,,0.00,WUHU216WMR968SP,2013-06-14 15:47:00,
2013-06-14 08:52:00,63.9,51.6,29.27,West,261,0.0,0.0,64,0.00,,,0.00,WUHU216WMR968SP,2013-06-14 15:52:00,
2013-06-14 08:57:00,63.9,51.6,29.27,ESE,121,0.0,0.0,64,0.00,,,0.00,WUHU216WMR968SP,2013-06-14 15:57:00,
2013-06-14 09:02:00,64.2,51.9,29.27,SSW,195,0.0,0.0,64,0.00,,,0.00,WUHU216WMR968SP,2013-06-14 16:02:00,
2013-06-14 09:07:00,64.4,52.1,29.24,ESE,111,0.0,0.0,64,0.00,,,0.00,WUHU216WMR968SP,2013-06-14 16:07:00,
2013-06-14 09:12:00,64.6,52.3,29.24,SSE,161,0.0,0.0,64,0.00,,,0.00,WUHU216WMR968SP,2013-06-14 16:12:00,
2013-06-14 09:17:00,64.6,51.9,29.24,SW,219,0.0,0.0,63,0.00,,,0.00,WUHU216WMR968SP,2013-06-14 16:17:00,
2013-06-14 09:22:00,64.8,51.6,29.24,NW,315,2.2,3.6,62,0.00,,,0.00,WUHU216WMR968SP,2013-06-14 16:22:00,
2013-06-14 09:27:00,64.6,51.4,29.24,SSW,208,2.7,4.9,62,0.00,,,0.00,WUHU216WMR968SP,2013-06-14 16:27:00,
2013-06-14 09:32:00,64.8,52.1,29.24,SE,143,0.0,4.9,63,0.00,,,0.00,WUHU216WMR968SP,2013-06-14 16:32:00,
2013-06-14 09:37:00,65.1,52.4,29.24,SSW,200,4.0,4.0,63,0.00,,,0.00,WUHU216WMR968SP,2013-06-14 16:37:00,
2013-06-14 09:42:00,65.5,52.7,29.24,South,183,4.0,5.8,63,0.00,,,0.00,WUHU216WMR968SP,2013-06-14 16:42:00,
2013-06-14 09:47:00,65.7,52.0,29.24,SSW,205,0.0,5.8,61,0.00,,,0.00,WUHU216WMR968SP,2013-06-14 16:47:00,
2013-06-14 09:52:00,65.8,52.6,29.27,SE,125,2.7,5.8,62,0.00,,,0.00,WUHU216WMR968SP,2013-06-14 16:52:00,
2013-06-14 09:57:00,65.8,51.7,29.27,WSW,256,3.1,5.8,60,0.00,,,0.00,WUHU216WMR968SP,2013-06-14 16:57:00,
2013-06-14 10:02:00,65.8,51.2,29.27,West,273,2.2,4.9,59,0.00,,,0.00,WUHU216WMR968SP,2013-06-14 17:02:00,
2013-06-14 10:07:00,66.0,51.9,29.24,WSW,246,2.7,6.3,60,0.00,,,0.00,WUHU216WMR968SP,2013-06-14 17:07:00,
2013-06-14 10:12:00,66.4,52.3,29.24,SW,231,5.4,6.3,60,0.00,,,0.00,WUHU216WMR968SP,2013-06-14 17:12:00,
2013-06-14 10:17:00,66.6,51.0,29.24,WSW,244,2.2,6.3,57,0.00,,,0.00,WUHU216WMR968SP,2013-06-14 17:17:00,
2013-06-14 10:22:00,66.6,51.5,29.24,SW,236,5.4,5.8,58,0.00,,,0.00,WUHU216WMR968SP,2013-06-14 17:22:00,
2013-06-14 10:27:00,66.7,51.1,29.24,WNW,302,3.6,5.8,57,0.00,,,0.00,WUHU216WMR968SP,2013-06-14 17:27:00,
2013-06-14 10:32:00,66.9,51.3,29.24,NW,320,0.0,7.6,57,0.00,,,0.00,WUHU216WMR968SP,2013-06-14 17:32:00,
2013-06-14 10:37:00,67.5,52.4,29.24,SSW,199,3.6,7.6,58,0.00,,,0.00,WUHU216WMR968SP,2013-06-14 17:37:00,
2013-06-14 10:42:00,68.5,52.3,29.24,SSE,156,0.0,7.2,56,0.00,,,0.00,WUHU216WMR968SP,2013-06-14 17:42:00,
2013-06-14 10:47:00,69.4,53.2,29.24,SW,233,4.5,5.8,56,0.00,,,0.00,WUHU216WMR968SP,2013-06-14 17:47:00,
2013-06-14 10:52:00,70.2,52.9,29.24,WNW,292,5.4,6.3,54,0.00,,,0.00,WUHU216WMR968SP,2013-06-14 17:52:00,
2013-06-14 10:57:00,69.8,52.0,29.24,NW,304,3.1,6.3,53,0.00,,,0.00,WUHU216WMR968SP,2013-06-14 17:57:00,
2013-06-14 11:02:00,69.4,51.6,29.24,SW,217,4.0,6.3,53,0.00,,,0.00,WUHU216WMR968SP,2013-06-14 18:02:00,
2013-06-14 11:07:00,69.4,52.1,29.24,SSW,208,3.1,6.3,54,0.00,,,0.00,WUHU216WMR968SP,2013-06-14 18:07:00,
2013-06-14 11:12:00,70.2,52.9,29.24,SE,126,4.0,5.8,54,0.00,,,0.00,WUHU216WMR968SP,2013-06-14 18:12:00,
2013-06-14 11:17:00,71.2,53.3,29.24,South,187,0.0,6.3,53,0.00,,,0.00,WUHU216WMR968SP,2013-06-14 18:17:00,
2013-06-14 11:22:00,71.6,53.1,29.24,SW,234,5.4,8.7,52,0.00,,,0.00,WUHU216WMR968SP,2013-06-14 18:22:00,
2013-06-14 11:27:00,71.2,53.3,29.24,SW,223,4.0,8.7,53,0.00,,,0.00,WUHU216WMR968SP,2013-06-14 18:27:00,
2013-06-14 11:32:00,71.8,53.3,29.24,SW,223,0.0,5.4,52,0.00,,,0.00,WUHU216WMR968SP,2013-06-14 18:32:00,
2013-06-14 11:38:00,72.7,54.2,29.24,SSW,203,4.5,8.1,52,0.00,,,0.00,WUHU216WMR968SP,2013-06-14 18:38:00,
2013-06-14 11:43:00,73.0,54.4,29.24,WSW,241,6.7,8.7,52,0.00,,,0.00,WUHU216WMR968SP,2013-06-14 18:43:00,
2013-06-14 11:48:00,73.0,54.4,29.24,NW,317,3.6,8.7,52,0.00,,,0.00,WUHU216WMR968SP,2013-06-14 18:48:00,
2013-06-14 11:53:00,72.5,54.0,29.21,SW,221,0.0,8.3,52,0.00,,,0.00,WUHU216WMR968SP,2013-06-14 18:53:00,
2013-06-14 11:58:00,72.9,54.3,29.21,WSW,238,4.0,6.3,52,0.00,,,0.00,WUHU216WMR968SP,2013-06-14 18:58:00,
2013-06-14 12:03:00,73.0,54.4,29.21,SW,228,3.6,7.2,52,0.00,,,0.00,WUHU216WMR968SP,2013-06-14 19:03:00,
2013-06-14 12:08:00,73.4,54.3,29.21,NW,310,0.0,7.2,51,0.00,,,0.00,WUHU216WMR968SP,2013-06-14 19:08:00,
2013-06-14 12:13:00,73.8,54.6,29.21,SSW,205,6.7,8.3,51,0.00,,,0.00,WUHU216WMR968SP,2013-06-14 19:13:00,
2013-06-14 12:18:00,74.1,54.9,29.21,SW,214,4.5,8.3,51,0.00,,,0.00,WUHU216WMR968SP,2013-06-14 19:18:00,
2013-06-14 12:23:00,74.1,54.9,29.21,SW,223,2.2,6.3,51,0.00,,,0.00,WUHU216WMR968SP,2013-06-14 19:23:00,
2013-06-14 12:28:00,73.9,54.7,29.21,West,278,5.8,7.6,51,0.00,,,0.00,WUHU216WMR968SP,2013-06-14 19:28:00,
2013-06-14 12:33:00,74.3,55.1,29.21,WSW,248,4.9,8.1,51,0.00,,,0.00,WUHU216WMR968SP,2013-06-14 19:33:00,
2013-06-14 12:38:00,75.2,55.4,29.21,SW,231,5.4,8.1,50,0.00,,,0.00,WUHU216WMR968SP,2013-06-14 19:38:00,
2013-06-14 12:43:00,75.6,55.7,29.21,SW,227,6.7,8.7,50,0.00,,,0.00,WUHU216WMR968SP,2013-06-14 19:43:00,
2013-06-14 12:48:00,75.7,55.8,29.21,SW,219,4.9,10.5,50,0.00,,,0.00,WUHU216WMR968SP,2013-06-14 19:48:00,
2013-06-14 12:53:00,76.1,56.2,29.21,SSW,213,6.7,10.5,50,0.00,,,0.00,WUHU216WMR968SP,2013-06-14 19:53:00,
2013-06-14 12:58:00,75.7,55.8,29.21,SSW,196,4.0,10.1,50,0.00,,,0.00,WUHU216WMR968SP,2013-06-14 19:58:00,
2013-06-14 13:03:00,76.5,56.6,29.21,West,275,3.6,6.7,50,0.00,,,0.00,WUHU216WMR968SP,2013-06-14 20:03:00,
2013-06-14 13:08:00,76.8,55.7,29.21,NW,304,2.7,8.7,48,0.00,,,0.00,WUHU216WMR968SP,2013-06-14 20:08:00,
2013-06-14 13:13:00,76.5,55.4,29.21,SW,231,3.6,8.7,48,0.00,,,0.00,WUHU216WMR968SP,2013-06-14 20:13:00,
2013-06-14 13:18:00,77.2,56.0,29.21,SSE,159,5.8,8.1,48,0.00,,,0.00,WUHU216WMR968SP,2013-06-14 20:18:00,
2013-06-14 13:23:00,77.4,56.2,29.19,NNW,337,4.0,8.3,48,0.00,,,0.00,WUHU216WMR968SP,2013-06-14 20:23:00,
2013-06-14 13:28:00,77.2,56.0,29.19,SSW,199,6.7,8.3,48,0.00,,,0.00,WUHU216WMR968SP,2013-06-14 20:28:00,
2013-06-14 13:33:00,77.7,56.5,29.19,WSW,239,4.9,8.3,48,0.00,,,0.00,WUHU216WMR968SP,2013-06-14 20:33:00,
2013-06-14 13:38:00,77.9,56.7,29.19,ESE,110,3.6,7.6,48,0.00,,,0.00,WUHU216WMR968SP,2013-06-14 20:38:00,
2013-06-14 13:43:00,78.4,57.2,29.19,SSW,200,4.5,6.3,48,0.00,,,0.00,WUHU216WMR968SP,2013-06-14 20:43:00,
2013-06-14 13:48:00,78.6,55.5,29.19,SW,229,4.9,8.7,45,0.00,,,0.00,WUHU216WMR968SP,2013-06-14 20:48:00,
2013-06-14 13:53:00,77.9,54.9,29.19,WSW,237,5.8,8.7,45,0.00,,,0.00,WUHU216WMR968SP,2013-06-14 20:53:00,
2013-06-14 13:58:00,77.2,56.0,29.19,SW,233,4.9,8.1,48,0.00,,,0.00,WUHU216WMR968SP,2013-06-14 20:58:00,
2013-06-14 14:03:00,77.4,54.4,29.19,NW,311,4.9,9.6,45,0.00,,,0.00,WUHU216WMR968SP,2013-06-14 21:03:00,
2013-06-14 14:08:00,76.6,55.5,29.19,WSW,249,4.9,9.6,48,0.00,,,0.00,WUHU216WMR968SP,2013-06-14 21:08:00,
2013-06-14 14:13:00,76.5,55.4,29.19,SSW,196,8.1,8.7,48,0.00,,,0.00,WUHU216WMR968SP,2013-06-14 21:13:00,
2013-06-14 14:18:00,76.8,55.7,29.19,NNW,332,4.5,8.7,48,0.00,,,0.00,WUHU216WMR968SP,2013-06-14 21:18:00,
2013-06-14 14:23:00,77.4,56.2,29.19,SSW,192,5.8,8.7,48,0.00,,,0.00,WUHU216WMR968SP,2013-06-14 21:23:00,
2013-06-14 14:28:00,77.5,56.3,29.19,SSW,213,4.5,8.3,48,0.00,,,0.00,WUHU216WMR968SP,2013-06-14 21:28:00,
2013-06-14 14:33:00,78.3,55.2,29.19,SW,220,5.4,8.7,45,0.00,,,0.00,WUHU216WMR968SP,2013-06-14 21:33:00,
2013-06-14 14:38:00,78.1,55.0,29.19,SW,217,5.4,8.7,45,0.00,,,0.00,WUHU216WMR968SP,2013-06-14 21:38:00,
2013-06-14 14:43:00,77.9,54.9,29.19,SSW,208,3.1,8.7,45,0.00,,,0.00,WUHU216WMR968SP,2013-06-14 21:43:00,
2013-06-14 14:48:00,77.9,54.9,29.19,West,271,4.5,8.7,45,0.00,,,0.00,WUHU216WMR968SP,2013-06-14 21:48:00,
2013-06-14 14:53:00,78.1,55.0,29.19,WSW,240,5.8,8.7,45,0.00,,,0.00,WUHU216WMR968SP,2013-06-14 21:53:00,
2013-06-14 14:58:00,78.1,55.0,29.19,WSW,242,4.0,8.7,45,0.00,,,0.00,WUHU216WMR968SP,2013-06-14 21:58:00,
2013-06-14 15:03:00,78.1,55.0,29.19,SW,224,6.3,8.7,45,0.00,,,0.00,WUHU216WMR968SP,2013-06-14 22:03:00,
2013-06-14 15:08:00,78.1,55.0,29.16,WSW,244,4.5,8.3,45,0.00,,,0.00,WUHU216WMR968SP,2013-06-14 22:08:00,
2013-06-14 15:13:00,78.1,55.0,29.16,SW,228,7.2,11.0,45,0.00,,,0.00,WUHU216WMR968SP,2013-06-14 22:13:00,
2013-06-14 15:18:00,77.7,54.7,29.16,WNW,295,4.5,11.0,45,0.00,,,0.00,WUHU216WMR968SP,2013-06-14 22:18:00,
2013-06-14 15:23:00,77.5,54.5,29.16,SSW,194,3.1,10.1,45,0.00,,,0.00,WUHU216WMR968SP,2013-06-14 22:23:00,
2013-06-14 15:28:00,77.9,54.9,29.16,South,191,4.0,8.1,45,0.00,,,0.00,WUHU216WMR968SP,2013-06-14 22:28:00,
2013-06-14 15:33:00,77.9,54.9,29.16,SW,231,6.7,9.2,45,0.00,,,0.00,WUHU216WMR968SP,2013-06-14 22:33:00,
2013-06-14 15:38:00,77.5,54.5,29.16,SSW,206,3.1,10.5,45,0.00,,,0.00,WUHU216WMR968SP,2013-06-14 22:38:00,
2013-06-14 15:43:00,77.9,54.9,29.16,WSW,257,5.8,10.5,45,0.00,,,0.00,WUHU216WMR968SP,2013-06-14 22:43:00,
2013-06-14 15:48:00,78.3,55.2,29.16,WSW,246,4.5,9.2,45,0.00,,,0.00,WUHU216WMR968SP,2013-06-14 22:48:00,
2013-06-14 15:53:00,77.5,54.5,29.16,SSW,210,7.2,9.2,45,0.00,,,0.00,WUHU216WMR968SP,2013-06-14 22:53:00,
2013-06-14 15:58:00,77.0,54.0,29.16,WSW,251,5.4,9.2,45,0.00,,,0.00,WUHU216WMR968SP,2013-06-14 22:58:00,
2013-06-14 16:03:00,76.5,53.6,29.16,WSW,243,4.9,8.7,45,0.00,,,0.00,WUHU216WMR968SP,2013-06-14 23:03:00,
2013-06-14 16:08:00,76.1,53.2,29.16,SW,223,4.9,8.3,45,0.00,,,0.00,WUHU216WMR968SP,2013-06-14 23:08:00,
2013-06-14 16:13:00,75.7,52.8,29.16,SW,229,5.8,8.3,45,0.00,,,0.00,WUHU216WMR968SP,2013-06-14 23:13:00,
2013-06-14 16:18:00,75.4,52.6,29.16,WSW,256,6.3,8.3,45,0.00,,,0.00,WUHU216WMR968SP,2013-06-14 23:18:00,
2013-06-14 16:23:00,74.8,52.6,29.16,SW,236,3.1,8.3,46,0.00,,,0.00,WUHU216WMR968SP,2013-06-14 23:23:00,
2013-06-14 16:28:00,74.5,52.4,29.16,SW,215,7.2,11.0,46,0.00,,,0.00,WUHU216WMR968SP,2013-06-14 23:28:00,
2013-06-14 16:33:00,74.3,52.2,29.16,SSW,196,4.5,11.0,46,0.00,,,0.00,WUHU216WMR968SP,2013-06-14 23:33:00,
2013-06-14 16:38:00,74.3,52.2,29.16,SW,233,6.3,8.7,46,0.00,,,0.00,WUHU216WMR968SP,2013-06-14 23:38:00,
2013-06-14 16:43:00,74.5,53.6,29.16,SW,217,5.4,8.7,48,0.00,,,0.00,WUHU216WMR968SP,2013-06-14 23:43:00,
2013-06-14 16:48:00,74.5,53.6,29.16,SSW,204,4.0,8.3,48,0.00,,,0.00,WUHU216WMR968SP,2013-06-14 23:48:00,
2013-06-14 16:53:00,74.3,52.2,29.16,WSW,237,4.9,8.3,46,0.00,,,0.00,WUHU216WMR968SP,2013-06-14 23:53:00,
2013-06-14 16:58:00,74.1,53.2,29.16,WSW,248,4.9,8.3,48,0.00,,,0.00,WUHU216WMR968SP,2013-06-14 23:58:00,
2013-06-14 17:03:00,74.1,53.2,29.16,South,181,4.0,8.1,48,0.00,,,0.00,WUHU216WMR968SP,2013-06-15 00:03:00,
2013-06-14 17:08:00,74.1,53.2,29.16,SW,219,3.6,8.1,48,0.00,,,0.00,WUHU216WMR968SP,2013-06-15 00:08:00,
2013-06-14 17:13:00,73.9,53.0,29.16,SW,215,4.5,8.1,48,0.00,,,0.00,WUHU216WMR968SP,2013-06-15 00:13:00,
2013-06-14 17:18:00,73.6,52.7,29.16,SW,235,5.4,7.6,48,0.00,,,0.00,WUHU216WMR968SP,2013-06-15 00:18:00,
2013-06-14 17:23:00,73.4,52.6,29.16,SW,219,4.9,9.6,48,0.00,,,0.00,WUHU216WMR968SP,2013-06-15 00:23:00,
2013-06-14 17:28:00,73.2,52.9,29.16,SSW,195,4.5,9.6,49,0.00,,,0.00,WUHU216WMR968SP,2013-06-15 00:28:00,
2013-06-14 17:33:00,73.2,52.9,29.16,SW,223,4.0,8.7,49,0.00,,,0.00,WUHU216WMR968SP,2013-06-15 00:33:00,
2013-06-14 17:38:00,73.0,52.8,29.16,SW,222,5.4,8.7,49,0.00,,,0.00,WUHU216WMR968SP,2013-06-15 00:38:00,
2013-06-14 17:43:00,72.9,52.7,29.16,SSW,213,0.0,8.3,49,0.00,,,0.00,WUHU216WMR968SP,2013-06-15 00:43:00,
2013-06-14 17:48:00,72.9,52.7,29.16,WSW,251,0.0,7.6,49,0.00,,,0.00,WUHU216WMR968SP,2013-06-15 00:48:00,
2013-06-14 17:53:00,72.3,52.1,29.16,SW,219,0.0,0.0,49,0.00,,,0.00,WUHU216WMR968SP,2013-06-15 00:53:00,
2013-06-14 17:58:00,72.0,51.8,29.16,SW,221,0.0,0.0,49,0.00,,,0.00,WUHU216WMR968SP,2013-06-15 00:58:00,
2013-06-14 18:03:00,72.1,51.9,29.16,SW,233,0.0,0.0,49,0.00,,,0.00,WUHU216WMR968SP,2013-06-15 01:03:00,
2013-06-14 18:08:00,71.8,51.7,29.16,WSW,257,0.0,0.0,49,0.00,,,0.00,WUHU216WMR968SP,2013-06-15 01:08:00,
2013-06-14 18:13:00,71.4,51.3,29.16,West,267,0.0,0.0,49,0.00,,,0.00,WUHU216WMR968SP,2013-06-15 01:13:00,
2013-06-14 18:18:00,71.1,51.0,29.16,WSW,245,0.0,0.0,49,0.00,,,0.00,WUHU216WMR968SP,2013-06-15 01:18:00,
2013-06-14 18:23:00,71.1,51.0,29.16,SSW,194,0.0,0.0,49,0.00,,,0.00,WUHU216WMR968SP,2013-06-15 01:23:00,
2013-06-14 18:28:00,70.9,50.8,29.16,SSW,193,0.0,0.0,49,0.00,,,0.00,WUHU216WMR968SP,2013-06-15 01:28:00,
2013-06-14 18:33:00,71.1,51.0,29.16,SSW,209,0.0,0.0,49,0.00,,,0.00,WUHU216WMR968SP,2013-06-15 01:33:00,
2013-06-14 18:38:00,71.2,51.1,29.16,SW,216,0.0,0.0,49,0.00,,,0.00,WUHU216WMR968SP,2013-06-15 01:38:00,
2013-06-14 18:43:00,71.4,51.3,29.16,WSW,254,0.0,0.0,49,0.00,,,0.00,WUHU216WMR968SP,2013-06-15 01:43:00,
2013-06-14 18:48:00,71.4,51.3,29.16,WSW,249,0.0,0.0,49,0.00,,,0.00,WUHU216WMR968SP,2013-06-15 01:48:00,
2013-06-14 18:53:00,70.9,50.8,29.19,SW,236,0.0,0.0,49,0.00,,,0.00,WUHU216WMR968SP,2013-06-15 01:53:00,
2013-06-14 18:58:00,70.5,50.5,29.19,SSW,202,0.0,0.0,49,0.00,,,0.00,WUHU216WMR968SP,2013-06-15 01:58:00,
2013-06-14 19:03:00,70.0,50.0,29.19,South,187,0.0,0.0,49,0.00,,,0.00,WUHU216WMR968SP,2013-06-15 02:03:00,
2013-06-14 19:08:00,69.6,50.2,29.19,WSW,246,0.0,0.0,50,0.00,,,0.00,WUHU216WMR968SP,2013-06-15 02:08:00,
2013-06-14 19:13:00,68.9,49.5,29.19,South,175,0.0,0.0,50,0.00,,,0.00,WUHU216WMR968SP,2013-06-15 02:13:00,
2013-06-14 19:18:00,68.9,50.6,29.19,SSE,160,0.0,0.0,52,0.00,,,0.00,WUHU216WMR968SP,2013-06-15 02:18:00,
2013-06-14 19:23:00,69.3,51.0,29.19,WSW,241,0.0,0.0,52,0.00,,,0.00,WUHU216WMR968SP,2013-06-15 02:23:00,
2013-06-14 19:28:00,69.3,51.0,29.19,SSW,209,0.0,0.0,52,0.00,,,0.00,WUHU216WMR968SP,2013-06-15 02:28:00,
2013-06-14 19:33:00,69.3,51.0,29.19,SSW,206,0.0,0.0,52,0.00,,,0.00,WUHU216WMR968SP,2013-06-15 02:33:00,
2013-06-14 19:38:00,69.1,50.8,29.19,South,191,0.0,0.0,52,0.00,,,0.00,WUHU216WMR968SP,2013-06-15 02:38:00,
2013-06-14 19:43:00,68.2,50.0,29.19,SW,223,0.0,4.0,52,0.00,,,0.00,WUHU216WMR968SP,2013-06-15 02:43:00,
2013-06-14 19:48:00,67.8,49.6,29.19,SW,215,3.6,5.8,52,0.00,,,0.00,WUHU216WMR968SP,2013-06-15 02:48:00,
2013-06-14 19:53:00,67.5,49.3,29.21,WSW,252,3.6,5.8,52,0.00,,,0.00,WUHU216WMR968SP,2013-06-15 02:53:00,
2013-06-14 19:58:00,67.1,49.5,29.21,SW,230,2.7,6.3,53,0.00,,,0.00,WUHU216WMR968SP,2013-06-15 02:58:00,
2013-06-14 20:03:00,66.9,49.3,29.21,SSW,210,4.0,6.3,53,0.00,,,0.00,WUHU216WMR968SP,2013-06-15 03:03:00,
2013-06-14 20:08:00,66.6,49.0,29.21,WSW,248,2.7,5.4,53,0.00,,,0.00,WUHU216WMR968SP,2013-06-15 03:08:00,
2013-06-14 20:13:00,65.8,48.3,29.21,SW,230,3.1,7.2,53,0.00,,,0.00,WUHU216WMR968SP,2013-06-15 03:13:00,
2013-06-14 20:18:00,65.1,48.1,29.21,SW,222,3.1,7.2,54,0.00,,,0.00,WUHU216WMR968SP,2013-06-15 03:18:00,
2013-06-14 20:23:00,64.9,47.9,29.21,SW,236,3.6,6.3,54,0.00,,,0.00,WUHU216WMR968SP,2013-06-15 03:23:00,
2013-06-14 20:28:00,64.9,47.9,29.21,SW,233,2.2,6.3,54,0.00,,,0.00,WUHU216WMR968SP,2013-06-15 03:28:00,
2013-06-14 20:33:00,64.9,47.9,29.21,South,181,0.0,5.8,54,0.00,,,0.00,WUHU216WMR968SP,2013-06-15 03:33:00,
2013-06-14 20:38:00,65.1,48.1,29.21,SSE,165,2.2,5.8,54,0.00,,,0.00,WUHU216WMR968SP,2013-06-15 03:38:00,
2013-06-14 20:43:00,65.3,48.3,29.21,SSW,194,0.0,4.9,54,0.00,,,0.00,WUHU216WMR968SP,2013-06-15 03:43:00,
2013-06-14 20:48:00,65.5,48.5,29.21,SW,218,0.0,4.0,54,0.00,,,0.00,WUHU216WMR968SP,2013-06-15 03:48:00,
2013-06-14 20:53:00,64.9,47.9,29.24,SSW,210,2.7,4.0,54,0.00,,,0.00,WUHU216WMR968SP,2013-06-15 03:53:00,
2013-06-14 20:58:00,64.6,47.7,29.24,SW,216,2.7,5.8,54,0.00,,,0.00,WUHU216WMR968SP,2013-06-15 03:58:00,
2013-06-14 21:03:00,64.2,47.8,29.24,SW,235,2.7,5.8,55,0.00,,,0.00,WUHU216WMR968SP,2013-06-15 04:03:00,
2013-06-14 21:08:00,64.0,48.1,29.21,SW,229,2.2,5.4,56,0.00,,,0.00,WUHU216WMR968SP,2013-06-15 04:08:00,
2013-06-14 21:13:00,63.7,47.8,29.21,SW,223,2.7,4.9,56,0.00,,,0.00,WUHU216WMR968SP,2013-06-15 04:13:00,
2013-06-14 21:18:00,63.5,47.6,29.21,SSW,209,0.0,4.9,56,0.00,,,0.00,WUHU216WMR968SP,2013-06-15 04:18:00,
2013-06-14 21:23:00,63.3,47.9,29.21,South,186,2.2,4.9,57,0.00,,,0.00,WUHU216WMR968SP,2013-06-15 04:23:00,
2013-06-14 21:28:00,63.1,47.7,29.21,SW,220,0.0,3.6,57,0.00,,,0.00,WUHU216WMR968SP,2013-06-15 04:28:00,
2013-06-14 21:33:00,63.1,47.7,29.21,WSW,241,0.0,3.6,57,0.00,,,0.00,WUHU216WMR968SP,2013-06-15 04:33:00,
2013-06-14 21:38:00,63.0,47.6,29.24,WSW,248,0.0,3.6,57,0.00,,,0.00,WUHU216WMR968SP,2013-06-15 04:38:00,
2013-06-14 21:43:00,63.0,48.1,29.24,WSW,252,0.0,3.6,58,0.00,,,0.00,WUHU216WMR968SP,2013-06-15 04:43:00,
2013-06-14 21:48:00,63.0,48.1,29.24,SSW,194,0.0,3.6,58,0.00,,,0.00,WUHU216WMR968SP,2013-06-15 04:48:00,
2013-06-14 21:53:00,63.0,48.1,29.24,SW,216,0.0,3.6,58,0.00,,,0.00,WUHU216WMR968SP,2013-06-15 04:53:00,
2013-06-14 21:58:00,63.0,48.1,29.24,South,184,3.1,4.9,58,0.00,,,0.00,WUHU216WMR968SP,2013-06-15 04:58:00,
2013-06-14 22:03:00,62.8,47.9,29.24,SW,217,0.0,4.9,58,0.00,,,0.00,WUHU216WMR968SP,2013-06-15 05:03:00,
2013-06-14 22:08:00,62.6,47.7,29.24,SW,225,0.0,3.1,58,0.00,,,0.00,WUHU216WMR968SP,2013-06-15 05:08:00,
2013-06-14 22:13:00,62.4,48.0,29.24,WSW,246,2.7,4.0,59,0.00,,,0.00,WUHU216WMR968SP,2013-06-15 05:13:00,
2013-06-14 22:18:00,62.2,47.8,29.24,SW,221,0.0,4.0,59,0.00,,,0.00,WUHU216WMR968SP,2013-06-15 05:18:00,
2013-06-14 22:23:00,62.1,48.2,29.24,SSW,198,0.0,4.0,60,0.00,,,0.00,WUHU216WMR968SP,2013-06-15 05:23:00,
2013-06-14 22:28:00,61.9,48.4,29.24,WSW,248,2.2,4.0,61,0.00,,,0.00,WUHU216WMR968SP,2013-06-15 05:28:00,
2013-06-14 22:33:00,61.9,48.4,29.24,SW,225,0.0,4.0,61,0.00,,,0.00,WUHU216WMR968SP,2013-06-15 05:33:00,
2013-06-14 22:38:00,61.7,48.3,29.24,South,185,0.0,3.1,61,0.00,,,0.00,WUHU216WMR968SP,2013-06-15 05:38:00,
2013-06-14 22:43:00,61.7,48.3,29.24,SSW,204,0.0,4.0,61,0.00,,,0.00,WUHU216WMR968SP,2013-06-15 05:43:00,
2013-06-14 22:48:00,61.5,48.5,29.24,SW,224,2.7,4.0,62,0.00,,,0.00,WUHU216WMR968SP,2013-06-15 05:48:00,
2013-06-14 22:53:00,61.3,48.7,29.24,South,189,0.0,3.1,63,0.00,,,0.00,WUHU216WMR968SP,2013-06-15 05:53:00,
2013-06-14 22:58:00,61.3,48.7,29.24,South,185,0.0,3.1,63,0.00,,,0.00,WUHU216WMR968SP,2013-06-15 05:58:00,
2013-06-14 23:03:00,61.2,48.7,29.24,SSW,196,0.0,3.6,63,0.00,,,0.00,WUHU216WMR968SP,2013-06-15 06:03:00,
2013-06-14 23:08:00,61.2,48.7,29.24,SW,218,0.0,4.0,63,0.00,,,0.00,WUHU216WMR968SP,2013-06-15 06:08:00,
2013-06-14 23:13:00,61.3,49.2,29.24,South,191,2.2,4.0,64,0.00,,,0.00,WUHU216WMR968SP,2013-06-15 06:13:00,
2013-06-14 23:18:00,61.3,49.2,29.24,SSW,192,0.0,4.0,64,0.00,,,0.00,WUHU216WMR968SP,2013-06-15 06:18:00,
2013-06-14 23:23:00,61.5,49.4,29.24,SE,126,0.0,3.6,64,0.00,,,0.00,WUHU216WMR968SP,2013-06-15 06:23:00,
2013-06-14 23:28:00,61.5,49.4,29.24,South,178,0.0,4.0,64,0.00,,,0.00,WUHU216WMR968SP,2013-06-15 06:28:00,
2013-06-14 23:33:00,61.5,49.4,29.24,SW,220,2.7,4.0,64,0.00,,,0.00,WUHU216WMR968SP,2013-06-15 06:33:00,
2013-06-14 23:38:00,61.5,49.4,29.24,SSW,210,0.0,4.0,64,0.00,,,0.00,WUHU216WMR968SP,2013-06-15 06:38:00,
2013-06-14 23:43:00,61.5,49.4,29.24,SW,223,0.0,5.4,64,0.00,,,0.00,WUHU216WMR968SP,2013-06-15 06:43:00,
2013-06-14 23:48:00,61.3,49.2,29.24,SW,224,0.0,5.8,64,0.00,,,0.00,WUHU216WMR968SP,2013-06-15 06:48:00,
2013-06-14 23:53:00,61.3,49.2,29.24,ESE,108,0.0,5.8,64,0.00,,,0.00,WUHU216WMR968SP,2013-06-15 06:53:00,
2013-06-14 23:58:00,61.2,49.1,29.24,SW,227,0.0,4.0,64,0.00,,,0.00,WUHU216WMR968SP,2013-06-15 06:58:00,